When you browse on this site, cookies collect data to enhance your experience and personalize the content and advertising you see.
Visit our Privacy Policy to learn more. By continuing to use the site, you agree to this use of cookies and data.
  • Em Portugal
  • Lista de países
  • Para 7 dias
  • Temperatura da água
  • Mapa do tempo
  • Widgets de tempo
  • user-avatar
    Iniciar Sessão

    Previsão horária em Matveeva

    Hoje, 26 Maio, Terça-feira

    Tempo Temperatura Precipitação Vento Pressão Humidade
    00:00 +7°C° 0 mm 6 m/s 745 mmHg 83%
    01:00 +7°C° 0 mm 6 m/s 745 mmHg 84%
    02:00 +7°C° 0 mm 5 m/s 746 mmHg 84%
    03:00 +7°C° 0 mm 4 m/s 747 mmHg 84%
    04:00 +8°C° 0 mm 3 m/s 748 mmHg 83%
    05:00 +9°C° 0 mm 3 m/s 748 mmHg 78%
    06:00 +10°C° 0 mm 4 m/s 749 mmHg 73%
    07:00 +11°C° 0 mm 4 m/s 749 mmHg 68%
    08:00 +13°C° 0 mm 3 m/s 749 mmHg 64%
    09:00 +14°C° 0 mm 3 m/s 750 mmHg 60%
    10:00 +17°C° 0 mm 3 m/s 750 mmHg 56%
    11:00 +17°C° 0 mm 3 m/s 750 mmHg 55%
    12:00 +18°C° 0 mm 3 m/s 750 mmHg 53%
    13:00 +18°C° 0 mm 3 m/s 750 mmHg 51%
    14:00 +18°C° 0 mm 3 m/s 751 mmHg 52%
    15:00 +18°C° 0 mm 2 m/s 751 mmHg 53%
    16:00 +18°C° 0 mm 2 m/s 751 mmHg 54%
    17:00 +18°C° 0 mm 2 m/s 751 mmHg 59%
    18:00 +18°C° 0 mm 1 m/s 751 mmHg 65%
    19:00 +16°C° 0 mm 1 m/s 751 mmHg 70%
    20:00 +14°C° 0 mm 1 m/s 751 mmHg 75%
    21:00 +13°C° 0 mm 2 m/s 751 mmHg 81%
    22:00 +10°C° 0 mm 2 m/s 751 mmHg 86%
    23:00 +10°C° 0 mm 2 m/s 751 mmHg 87%

    Amanhã, 27 Maio, Quarta-feira

    Tempo Temperatura Precipitação Vento Pressão Humidade
    00:00 +10°C° 0 mm 1 m/s 751 mmHg 88%
    01:00 +10°C° 0 mm 1 m/s 751 mmHg 89%
    02:00 +10°C° 0 mm 1 m/s 751 mmHg 91%
    03:00 +10°C° 0 mm 1 m/s 751 mmHg 92%
    04:00 +9°C° 0 mm 1 m/s 752 mmHg 93%
    05:00 +10°C° 0 mm 2 m/s 751 mmHg 86%
    06:00 +12°C° 0 mm 3 m/s 751 mmHg 78%
    07:00 +14°C° 0 mm 3 m/s 751 mmHg 71%
    08:00 +15°C° 0 mm 4 m/s 750 mmHg 66%
    09:00 +17°C° 0 mm 4 m/s 750 mmHg 61%
    10:00 +17°C° 0 mm 5 m/s 750 mmHg 56%
    11:00 +19°C° 0 mm 5 m/s 749 mmHg 54%
    12:00 +20°C° 0 mm 5 m/s 748 mmHg 51%
    13:00 +21°C° 0 mm 5 m/s 748 mmHg 49%
    14:00 +21°C° 0 mm 5 m/s 747 mmHg 50%
    15:00 +21°C° 0 mm 5 m/s 746 mmHg 51%
    16:00 +21°C° 0 mm 6 m/s 746 mmHg 53%
    17:00 +20°C° 0.2 mm 5 m/s 745 mmHg 60%
    18:00 +17°C° 0.2 mm 5 m/s 745 mmHg 68%
    19:00 +17°C° 0.2 mm 4 m/s 744 mmHg 75%
    20:00 +15°C° 0.2 mm 4 m/s 744 mmHg 80%
    21:00 +14°C° 0.2 mm 4 m/s 743 mmHg 84%
    22:00 +14°C° 0.2 mm 3 m/s 743 mmHg 89%
    23:00 +13°C° 0 mm 3 m/s 742 mmHg 89%

    Depois de amanhã, 28 Maio, Quinta-feira

    Tempo Temperatura Precipitação Vento Pressão Humidade
    00:00 +13°C° 0 mm 3 m/s 742 mmHg 90%
    01:00 +13°C° 0 mm 3 m/s 741 mmHg 90%
    02:00 +13°C° 0.4 mm 3 m/s 741 mmHg 91%
    03:00 +13°C° 0.4 mm 3 m/s 740 mmHg 92%
    04:00 +13°C° 0.4 mm 3 m/s 740 mmHg 92%
    05:00 +14°C° 0.6 mm 3 m/s 739 mmHg 90%
    06:00 +17°C° 0.6 mm 3 m/s 739 mmHg 87%
    07:00 +18°C° 0.6 mm 4 m/s 739 mmHg 84%
    08:00 +20°C° 0.1 mm 4 m/s 739 mmHg 80%
    09:00 +21°C° 0.1 mm 4 m/s 739 mmHg 75%
    10:00 +22°C° 0.1 mm 5 m/s 739 mmHg 71%
    11:00 +23°C° 0 mm 5 m/s 739 mmHg 69%
    12:00 +23°C° 0 mm 5 m/s 739 mmHg 66%
    13:00 +23°C° 0 mm 5 m/s 739 mmHg 64%
    14:00 +22°C° 0 mm 5 m/s 739 mmHg 64%
    15:00 +22°C° 0 mm 5 m/s 739 mmHg 64%
    16:00 +21°C° 0 mm 5 m/s 739 mmHg 64%
    17:00 +20°C° 0 mm 5 m/s 740 mmHg 67%
    18:00 +18°C° 0 mm 4 m/s 740 mmHg 69%
    19:00 +17°C° 0 mm 4 m/s 740 mmHg 72%
    20:00 +14°C° 0 mm 4 m/s 741 mmHg 75%
    21:00 +13°C° 0 mm 4 m/s 741 mmHg 79%
    22:00 +11°C° 0 mm 3 m/s 741 mmHg 82%
    23:00 +10°C° 0 mm 3 m/s 741 mmHg 83%

    29 Maio, Sexta-feira

    Tempo Temperatura Precipitação Vento Pressão Humidade
    00:00 +10°C° 0 mm 3 m/s 742 mmHg 85%
    01:00 +9°C° 0 mm 3 m/s 742 mmHg 86%
    02:00 +9°C° 0 mm 3 m/s 742 mmHg 86%
    03:00 +9°C° 0 mm 3 m/s 742 mmHg 87%
    04:00 +9°C° 0 mm 2 m/s 742 mmHg 88%
    05:00 +11°C° 0 mm 3 m/s 742 mmHg 81%
    06:00 +13°C° 0 mm 3 m/s 742 mmHg 74%
    07:00 +14°C° 0 mm 4 m/s 742 mmHg 67%
    08:00 +17°C° 0 mm 4 m/s 742 mmHg 61%
    09:00 +17°C° 0 mm 5 m/s 742 mmHg 54%
    10:00 +19°C° 0 mm 5 m/s 742 mmHg 48%
    11:00 +20°C° 0 mm 5 m/s 742 mmHg 46%
    12:00 +21°C° 0 mm 5 m/s 742 mmHg 43%
    13:00 +22°C° 0 mm 5 m/s 742 mmHg 41%
    14:00 +21°C° 0 mm 5 m/s 742 mmHg 40%
    15:00 +21°C° 0 mm 5 m/s 742 mmHg 40%
    16:00 +21°C° 0 mm 5 m/s 742 mmHg 40%
    17:00 +20°C° 0 mm 4 m/s 742 mmHg 46%
    18:00 +19°C° 0 mm 3 m/s 742 mmHg 52%
    19:00 +18°C° 0 mm 2 m/s 742 mmHg 59%
    20:00 +17°C° 0 mm 2 m/s 743 mmHg 64%
    21:00 +15°C° 0 mm 2 m/s 743 mmHg 70%
    22:00 +13°C° 0 mm 2 m/s 743 mmHg 76%
    23:00 +13°C° 0 mm 2 m/s 743 mmHg 77%

    30 Maio, Sábado

    Tempo Temperatura Precipitação Vento Pressão Humidade
    00:00 +12°C° 0 mm 2 m/s 743 mmHg 77%
    01:00 +10°C° 0 mm 2 m/s 744 mmHg 78%
    02:00 +10°C° 0 mm 2 m/s 744 mmHg 78%
    03:00 +10°C° 0 mm 2 m/s 744 mmHg 79%
    04:00 +9°C° 0 mm 2 m/s 744 mmHg 79%
    05:00 +13°C° 0 mm 1 m/s 744 mmHg 72%
    06:00 +15°C° 0 mm 1 m/s 744 mmHg 65%
    07:00 +18°C° 0 mm 1 m/s 745 mmHg 58%
    08:00 +20°C° 0 mm 1 m/s 745 mmHg 52%
    09:00 +21°C° 0 mm 1 m/s 744 mmHg 46%
    10:00 +23°C° 0 mm 1 m/s 744 mmHg 40%
    11:00 +23°C° 0 mm 1 m/s 744 mmHg 38%
    12:00 +24°C° 0 mm 1 m/s 744 mmHg 36%
    13:00 +25°C° 0 mm 1 m/s 744 mmHg 34%
    14:00 +25°C° 0 mm 1 m/s 743 mmHg 34%
    15:00 +25°C° 0 mm 1 m/s 743 mmHg 34%
    16:00 +25°C° 0 mm 1 m/s 742 mmHg 35%
    17:00 +24°C° 0 mm 1 m/s 742 mmHg 41%
    18:00 +23°C° 0 mm 1 m/s 741 mmHg 48%
    19:00 +22°C° 0 mm 1 m/s 741 mmHg 54%
    20:00 +20°C° 0 mm 1 m/s 741 mmHg 58%
    21:00 +18°C° 0 mm 2 m/s 740 mmHg 62%
    22:00 +16°C° 0 mm 2 m/s 740 mmHg 65%
    23:00 +15°C° 0 mm 2 m/s 739 mmHg 68%

    31 Maio, Domingo

    Tempo Temperatura Precipitação Vento Pressão Humidade
    00:00 +14°C° 0 mm 2 m/s 739 mmHg 70%
    01:00 +14°C° 0 mm 2 m/s 738 mmHg 72%
    02:00 +14°C° 0 mm 2 m/s 738 mmHg 74%
    03:00 +13°C° 0 mm 1 m/s 738 mmHg 75%
    04:00 +13°C° 0 mm 1 m/s 737 mmHg 77%
    05:00 +15°C° 0 mm 1 m/s 737 mmHg 71%
    06:00 +18°C° 0 mm 1 m/s 737 mmHg 65%
    07:00 +19°C° 0 mm 2 m/s 737 mmHg 60%
    08:00 +20°C° 0 mm 2 m/s 737 mmHg 61%
    09:00 +20°C° 0 mm 3 m/s 737 mmHg 61%
    10:00 +21°C° 0 mm 4 m/s 736 mmHg 62%
    11:00 +19°C° 0 mm 4 m/s 736 mmHg 67%
    12:00 +18°C° 0 mm 4 m/s 736 mmHg 71%
    13:00 +15°C° 0 mm 4 m/s 736 mmHg 75%
    14:00 +15°C° 1.5 mm 4 m/s 736 mmHg 79%
    15:00 +14°C° 1.5 mm 3 m/s 736 mmHg 82%
    16:00 +15°C° 1.5 mm 2 m/s 736 mmHg 86%
    17:00 +14°C° 0.2 mm 2 m/s 736 mmHg 86%
    18:00 +14°C° 0.2 mm 2 m/s 736 mmHg 87%
    19:00 +13°C° 0.2 mm 2 m/s 736 mmHg 87%
    20:00 +13°C° 0.1 mm 2 m/s 736 mmHg 86%
    21:00 +12°C° 0.1 mm 2 m/s 736 mmHg 85%
    22:00 +12°C° 0.1 mm 1 m/s 736 mmHg 84%
    23:00 +11°C° 0 mm 1 m/s 736 mmHg 84%
    Mostrar mais